Weather in Mobor

India     15°15′25″N   74°06′39″E
temp.,
°C
wind,
m/s
gust,
m/s
humid.,
%
clouds,
%
prec.,
mm/h
press.,
hPa
HPBL,
m
8 march, mon
mon823:30+24nnw12740 0.0 101264
02:30+22e11800 0.0 101050
05:30+22ese11800 0.0 101034
08:30+29ene01500 0.0 1013204
11:30+36wsw44280 0.0 10131605
14:30+33wsw66440 0.0 1009661
17:30+30w44560 0.0 1008616
20:30+24ese01760 0.0 101129
9 march, tue
tue923:30+23se12750 0.0 101229
02:30+22se11800 0.0 101046
05:30+21ese12800 0.0 101055
08:30+27se11480 0.0 1013191
11:30+34sw33350 0.0 1013933
14:30+33wsw55460 0.0 1010703
17:30+30w34500 0.0 1009472
20:30+24n12700 0.0 101164
10 march, wed
wed1023:30+23ene11700 0.0 101242
02:30+22ese11680 0.0 101032
05:30+21ene11630 0.0 101037
08:30+28se12390 0.0 1013166
11:30+35wsw44290 0.0 10131148
14:30+34wsw45350 0.0 1009689
17:30+30wnw35540 0.0 1008412
20:30+24nne11800 0.0 101068
11 march, thu
thu1123:30+23ese11790 0.0 101146
02:30+22sse11730 0.0 101041
05:30+21se12710 0.0 101066
08:30+27se12470 0.0 1012192
11:30+33sw54480 0.0 1013926
14:30+32sw56480 0.0 1009773
17:30+29w45600 0.0 1008771
20:30+25nw12830 0.0 101184
12 march, fri
fri1223:30+23ne12880 0.0 101280
02:30+22ese11914 0.0 101152
05:30+21ese229045 0.0 101140
08:30+27se126117 0.0 1014287
11:30+34wsw43379 0.0 10131054
14:30+32w66490 0.0 1010522
17:30+30wnw45549 0.0 1009560
20:30+24nnw12810 0.0 101170